Weather in Velikoknyazevka

Russia / Amur Oblast     50°54′40″N   127°54′36″E
temp.,
°C
wind,
m/s
gust,
m/s
humid.,
%
clouds,
%
prec.,
mm/h
press.,
hPa
HPBL,
m
5 march, fri
fri500:00−20nnw61478100 0.0 1022474
03:00−24nnw6167560 0.0 1025540
06:00−26nw615770 0.0 1026536
09:00−24nw714740 0.0 1028730
12:00−20nw711740 0.0 10291172
15:00−18nw7117550 0.0 10301375
18:00−19nw41084100 0.1 1032636
21:00−22nw398799 0.1 1033201
6 march, sat
sat600:00−24wnw37870 0.0 1034112
03:00−25wnw35880 0.0 103599
06:00−26wnw23910 0.0 103542
09:00−21w25820 0.0 1035174
12:00−14wnw24670 0.0 1033750
15:00−12sw246722 0.0 10311012
18:00−16sse2288100 0.0 102929
21:00−20ssw239364 0.0 102923
7 march, sun
sun700:00−20s239368 0.0 102824
03:00−19s339583 0.0 102678
06:00−17sse2697100 0.1 1024207
09:00−15se2395100 0.5 1024263
12:00−12ese1185100 0.1 1024455
15:00−11ne1283100 0.3 1025509
18:00−15ne119298 0.0 102620
21:00−18wsw119872 0.0 102820
8 march, mon
mon800:00−19wsw129747 0.0 102720
03:00−19ssw229526 0.0 102720
06:00−19s349418 0.0 102567
09:00−15s5109144 0.0 1023269
12:00−7ssw6108529 0.0 1020615
15:00−1ssw5107564 0.0 10161026
18:00−4ssw4984100 0.0 1012322
21:00−5ssw41088100 0.0 1010379
9 march, tue
tue900:00−5ssw5996100 1.3 1008371
03:00−5wnw3891100 1.6 1007247
06:00−9nw61390100 0.0 1008374
09:00−10nnw71483100 0.0 1012623
12:00−8nnw8148150 0.0 1015924
15:00−3nnw8157254 0.0 10181332
18:00−4nw615732 0.0 1021713
21:00−8nw411791 0.0 1024254